Location: Cremona
(45.1170°N, 10.0330°E)
Time: 12:02:02
(UTC+01:00)

ISS - Pass Details

Date: 23 January 2019
Orbit: 403 x 411 km, 51.6° (Epoch: 18 February)

Event Time Altitude Azimuth Distance (km) Brightness Sun altitude
Rises 18:32:30 0° 213° (SSW) 2,320 0.8 -13.7°
Reaches altitude 10° 18:34:43 10° 201° (SSW) 1,465 -0.5 -14.1°
Maximum altitude 18:37:37 29° 139° (SE) 783 -2.7 -14.6°
Enters shadow 18:38:23 26° 113° (ESE) 849 -2.7 -14.7°
